Location: Pinhead Observatory
(34.4473°N, 118.1985°W)
Time: 09:05:05
(UTC-07:00)

Daily predictions for brighter satellites

Satellite Brightness Start Highest point End
(mag) Time Altitude Azimuth Time Altitude Azimuth Time Altitude Azimuth
Cosmos 1420 Rocket 4.5 20:28:12 10° N 20:33:09 44° ENE 20:38:04 10° SE
Cosmos 1452 Rocket 3.8 20:28:41 10° N 20:33:51 52° ENE 20:38:58 10° SSE
Cosmos 1844 Rocket 3.3 20:31:53 10° SSE 20:36:56 34° ESE 20:41:59 10° NE
Cosmos 2056 Rocket 4.5 20:33:28 10° NNW 20:38:28 49° WSW 20:43:30 10° S
YAOGAN 6 2.6 20:35:28 10° S 20:38:59 83° WSW 20:42:30 10° NNW
Cosmos 1400 Rocket 2.9 20:38:23 10° S 20:42:25 86° WNW 20:46:25 10° N
CZ-3 Stage 3 3.1 20:42:01 10° WSW 20:44:49 51° SSE 20:54:34 10° E
Cosmos 1238 Rocket 3.7 20:43:09 10° SE 20:45:17 19° E 20:47:28 10° NE
Cosmos 1470 3.2 20:44:24 10° NNW 20:48:17 64° W 20:52:09 10° S
Lacrosse 5 2.8 20:46:22 10° SW 20:51:17 53° NW 20:56:15 10° NNE
Cosmos 2285 Rocket 4.1 20:45:23 10° S 20:51:35 60° ESE 20:57:46 10° NNE
ATLAS 3B R/B 4.4 20:49:46 10° N 20:54:14 19° NE 20:58:39 10° E
Cosmos-2242 4.5 20:51:55 10° NNE 20:55:19 22° ENE 20:58:13 12° ESE
Cosmos 2266 Rocket 4.0 20:50:40 10° N 20:57:02 72° E 21:03:16 10° SSE
Aureole 1 Rocket 3.2 20:58:33 10° SSW 21:01:35 54° WNW 21:05:11 10° N
Meteor 1-24 Rocket 4.1 20:56:11 10° SSE 21:01:59 51° E 21:07:47 10° NNE
H-2A R/B 3.3 20:59:23 12° ESE 21:03:21 27° ENE 21:07:49 10° NNE
Cosmos 1607 4.5 20:57:17 10° NW 21:03:30 58° WSW 21:09:33 10° SSE
Cosmos 1269 Rocket 4.0 20:59:52 10° S 21:05:08 74° ESE 21:10:27 10° NNE
Timation 1 Rocket 4.4 21:00:10 10° S 21:05:57 56° ESE 21:11:46 10° NNE
Resurs 1-3 4.1 21:08:52 10° S 21:13:10 59° W 21:17:30 10° NNW
SEDSat Delta rocket 4.0 21:15:47 10° SW 21:20:44 34° SSE 21:23:43 18° ESE
Iridium 4 Rocket 3.7 21:16:10 10° S 21:21:52 88° W 21:27:10 10° N
Cosmos 1953 Rocket 3.5 21:17:53 10° S 21:22:13 90° W 21:26:38 10° N
ATLAS 2AS CENTAUR R/B 3.2 21:14:43 10° SSW 21:22:25 80° WNW 21:30:35 10° NNE
Aurora 2 Rocket 4.2 21:17:51 10° SW 21:23:08 36° S 21:28:29 17° ESE
In-Cosmos 22 4.2 21:17:42 10° S 21:23:13 86° W 21:28:54 10° N
Cosmos 1437 3.0 21:20:46 10° N 21:23:50 47° E 21:25:11 27° SE
Meteor 2-5 Rocket 4.3 21:18:23 10° SSW 21:24:17 65° W 21:30:10 10° N
Cosmos 1553 Rocket 4.4 21:22:24 15° SSE 21:26:57 41° E 21:32:35 10° NNE
Cosmos 1758 Rocket 4.1 21:22:58 10° SSW 21:27:22 61° W 21:31:45 10° N
Cosmos 1674 3.0 21:25:09 20° SSE 21:27:29 47° E 21:31:10 10° NNE
ERS-1 Rocket 3.9 21:26:45 20° ESE 21:29:25 33° ENE 21:33:53 10° N
BREEZE-M R/B 4.0 21:27:27 10° W 21:29:32 18° SW 21:30:38 14° SSW
ERS-2 3.5 21:35:20 10° SSW 21:38:43 35° W 21:42:06 10° NNW
Cosmos 2251 Rocket 4.0 21:37:15 21° SSE 21:40:24 41° ESE 21:45:24 10° NNE
Cosmos 1726 3.1 21:37:49 10° NNE 21:41:10 30° E 21:41:48 28° E
Resurs 01 Rocket 3.3 21:37:45 10° SSW 21:41:35 29° W 21:45:27 10° NW
Terra 3.8 21:41:23 12° E 21:42:40 13° ENE 21:44:54 10° NE
Cosmos 724 4.5 21:37:25 10° NNW 21:43:26 65° ENE 21:46:54 26° SE
Cosmos 921 Rocket 3.1 21:44:02 10° N 21:48:31 68° ENE 21:50:23 34° SSE
Iridium 81 4.0 21:49:33 50° NE 21:49:33 50° NE 21:51:51 10° N
USA 215 3.3 21:46:11 24° SE 21:50:24 77° SW 21:56:59 10° NW
OAO 3 Rocket 3.2 21:45:34 10° W 21:50:34 89° NE 21:53:18 26° E
Cosmos 1461 3.1 21:52:07 16° SSW 21:55:43 63° ESE 22:00:24 10° NE
NOSS 2-2 (E) 4.3 21:59:03 30° E 21:59:03 30° E 22:01:45 10° NE
NOSS 3-4 (A) 3.4 21:54:04 10° SSW 22:00:05 61° ESE 22:06:17 10° NE
NOSS 3-4 (C) 3.4 21:54:10 10° SSW 22:00:10 60° ESE 22:06:21 10° NE
ARGOS 3.4 21:59:19 22° S 22:02:50 65° WSW 22:08:14 10° NNW
Cosmos 2278 Rocket 2.2 22:00:36 23° S 22:04:07 62° ESE 22:09:43 10° NNE
Cosmos 220 Rocket 4.1 22:07:44 22° SSW 22:10:23 73° WNW 22:14:37 10° NNE
APEX 3.9 22:11:53 10° N 22:14:55 38° ENE 22:14:55 38° ENE
Meteor 1-21 Rocket 4.2 22:12:22 31° S 22:15:16 75° E 22:21:05 10° NNE
SL-08 RB Rocket 4.4 22:17:30 29° SSW 22:19:32 50° W 22:24:05 10° NNW
SL-14 R/B 3.1 22:20:17 69° E 22:20:17 69° E 22:24:07 10° NNE
CARTOSAT-1 4.4 22:21:01 36° ENE 22:21:07 36° ENE 22:25:05 10° N
TELKOM 3 4.5 22:18:07 10° NW 22:24:19 87° SW 22:25:00 65° SE
Meteor 2-13 Rocket 4.4 22:19:51 10° N 22:25:57 74° E 22:27:54 45° SSE
SPOT 5 2.9 22:24:53 52° SSE 22:26:08 79° ENE 22:31:25 10° N
Cosmos 1745 Rocket 3.9 22:20:01 10° N 22:26:21 83° E 22:28:39 42° SSE
COSMOS 2406 3.2 22:20:56 10° NNW 22:26:42 80° WSW 22:28:30 46° S
NOSS 2-2 (D) 3.8 22:29:53 46° NE 22:29:53 46° NE 22:32:55 10° NE
Cosmos 1076 Rocket 4.3 22:32:29 37° ENE 22:32:29 37° ENE 22:35:41 10° NNE
ATLAS 5 CENTAUR R/B 1.5 22:37:13 68° SW 22:37:47 88° WNW 22:42:32 10° NNE
Cosmos 1626 3.3 22:40:50 35° NE 22:40:50 35° NE 22:43:14 10° NNE
Helios 1A 3.0 22:41:42 70° WSW 22:41:47 70° W 22:45:59 10° NNW
SPOT 1/Viking Rocket 3.5 22:41:24 56° SSW 22:42:25 75° WSW 22:47:35 10° NNW
H-2A R/B 3.5 22:40:01 21° SW 22:42:34 32° W 22:47:21 10° NW
ATLAS 3B R/B 2.5 22:39:04 10° NNW 22:45:41 83° WSW 22:47:23 53° SSE
Helios 1B rocket 2.5 22:42:17 10° N 22:46:22 70° WNW 22:46:22 70° WNW
Cosmos 2297 3.9 22:48:47 52° E 22:48:47 52° E 22:54:04 10° NNE
USA 238 DEB 4.1 22:43:15 10° NW 22:50:17 59° WSW 22:52:33 42° S
USA 238 4.1 22:43:21 10° NW 22:50:23 59° WSW 22:52:38 42° S
Cosmos 1340 4.1 22:48:50 10° NNW 22:52:11 31° W 22:52:11 31° W
Cosmos 1241 Rocket 4.3 22:52:17 61° SE 22:52:52 64° ESE 22:59:02 10° NE
Cosmos 1842 Rocket 4.3 22:49:02 10° NNW 22:53:10 43° W 22:53:33 42° WSW
NOSS 2-2 (C) 3.9 22:55:16 54° NW 22:55:16 54° NW 22:59:04 10° NNE
Cosmos 2082 Rocket 3.0 22:50:51 10° N 22:56:05 36° ENE 22:56:41 35° ENE
Cosmos 1833 Rocket 3.3 22:51:14 10° N 22:56:32 41° ENE 22:57:01 40° ENE
Cosmos 1709 Rocket 3.8 22:53:23 10° N 22:59:36 74° E 23:00:25 65° SE
ATLAS 3B CENTAUR R/B 3.4 22:42:40 10° WSW 22:59:37 53° S 23:01:26 47° SE
Landsat 7 4.1 23:00:13 56° WSW 23:00:27 56° W 23:05:09 10° NNW
NOSS 3-2 (A) 4.0 22:54:14 10° NNW 23:02:02 80° WSW 23:04:29 50° SSE
Spot 1 4.3 23:02:42 71° NNW 23:02:42 71° NNW 23:06:47 10° NNW
CZ-2C R/B 2.6 22:57:33 10° NNE 23:02:37 64° E 23:02:37 64° E
Cosmos 1455 4.3 23:07:22 10° NNE 23:09:00 21° NNE 23:09:00 21° NNE
Cosmos 1300 4.3 23:08:42 10° NNW 23:11:27 32° WNW 23:11:27 32° WNW
Aureole 3 Rocket 4.2 23:11:17 49° SSW 23:13:34 83° W 23:19:32 10° N
Meteor 2-19 Rocket 4.4 23:08:08 10° N 23:14:17 69° E 23:14:37 67° ESE
RESURS DK-1 3.5 23:17:46 40° N 23:17:46 40° N 23:20:33 10° NNE
Terra 2.3 23:20:16 53° W 23:20:16 53° W 23:24:34 10° NNW
Okean 3 Rocket 4.4 23:21:36 48° NW 23:21:36 48° NW 23:25:13 10° N
Cosmos 2221 3.7 23:18:28 10° NNW 23:21:54 37° WNW 23:21:54 37° WNW
NOSS 3-2 (C) 4.1 23:20:12 10° NW 23:28:00 75° WSW 23:29:39 59° S
Cosmos 1992 Rocket 4.1 23:24:22 10° NNW 23:28:59 70° N 23:28:59 70° N
EO 1 Delta rocket 4.2 23:25:08 10° N 23:31:21 81° WNW 23:31:21 81° WNW
COBE Rocket 4.2 23:30:39 10° N 23:35:05 67° N 23:35:05 67° N
CZ-2C R/B 3.9 23:41:41 46° WSW 23:41:51 46° W 23:47:24 10° NNW
ADEOS Rocket 3.7 23:40:25 10° NNE 23:45:35 45° E 23:45:35 45° E
Cosmos 2184 Rocket 3.9 23:47:10 10° N 23:53:16 78° NE 23:53:16 78° NE
